Starlink 4694

operational
NORAD ID: 53708 Int'l Des: 2022-107 Owner: SPXS Country: US Constellation: starlink
LEOCIRCULAR

About Starlink 4694

Description loading...

Live Position

Loading 3D Globe...

Upcoming Passes

Altitude History

Altitude vs Time

uPlot chart will show altitude changes over time

Two-Line Element Set

1 53708U 22107J 25302.71479991 .00000250 00000-0 33796-4 0 9993
2 53708 53.2161 96.9536 0001408 89.4837 270.6317 15.08842863175298
Epoch: Oct 29, 2025 • Age: 29 hours

Current Status

Altitude 543.5 km
Velocity 7.59 km/s
Sub-Earth Point -12.85°S, 76.89°E
Launch Date Sep 5, 2022
Age 3.1 years
Type internet

Technical Details

Classification Payload
Mass 305.00 kg
Dry Mass 290.00 kg
Total Mass 305.00 kg
Length 0.20 m
Diameter 2.80 m
Span 9.00 m
Shape Box + pan
Manufacturer SPXS
Bus Type Starlink
Phase Status In Orbit
Owner/State SPXS/US

Large Constellations

Loading constellations...